Location: Demmingen
(48.6757°N, 10.4375°E)
Time: 10:13:26
(UTC+00:00)

Cosmos 2333 Rocket - Pass Details

Date: 23 May 2024
Orbit: 838 x 863 km, 70.8° (Epoch: 15 June)

Event Time Altitude Azimuth Distance (km) Brightness Sun altitude
Rises 02:30:41 0° 326° (NW) 3,426 5.5 -8.1°
Reaches altitude 10° 02:33:16 10° 319° (NW) 2,490 4.7 -7.8°
Maximum altitude 02:38:32 40° 252° (WSW) 1,251 2.7 -7.2°
Drops below altitude 10° 02:43:49 10° 185° (S) 2,488 4.2 -6.5°
Sets 02:46:24 0° 178° (S) 3,423 5.0 -6.2°
